Location: Unspecified
(42.9300°N, 71.1866°W)
Time: 19:00:57
(UTC-04:00)

CZ-3 Stage 3 - Visible Passes

Search period start: 27 July 2016 00:00
Search period end: 06 August 2016 00:00
Orbit: 466 x 34738 km, 30.5° (Epoch: 26 July)

Date Brightness Start Highest point End Pass type
(mag) Time Alt. Az. Time Alt. Az. Time Alt. Az.
29 Jul 5.3 00:27:18 10° W 00:37:00 20° WSW 00:37:00 20° WSW visible
29 Jul 5.5 13:03:17 10° S 20:58:00 58° S 21:08:52 10° ESE visible
01 Aug 5.4 00:18:48 10° W 00:28:37 19° SW 00:28:37 19° SW visible
01 Aug 5.5 12:51:32 10° S 20:49:30 59° S 21:00:26 10° ESE visible
04 Aug 5.4 00:10:20 10° W 00:20:14 19° SW 00:20:14 19° SW visible
04 Aug 5.5 12:39:57 10° S 20:41:01 59° S 20:52:01 10° ESE visible
